ARG1644 SAZN-SACO

Flight info

Callsign ARG1644
Flight time 1h 19m
Altitude 41000
Route OSEKO UZ114 SIMES SIMES1X
Aircraft E190/M-SDE3GILORVW/S

Departure

Time 2026-05-04 19:28
Airport Presidente Perón International Airport (SAZN)

Arrival

Time 2026-05-04 20:47
Airport Ingeniero Aeronáutico Ambrosio L.V. Taravella International Airport (SACO)
Time Latitude Longitude Altitude Speed Heading
2026-05-04 18:41 -38.95142 -68.13964 904 ft 0 kts 179°
2026-05-04 19:18 -38.95139 -68.13964 905 ft 2 kts 179°
2026-05-04 19:19 -38.95124 -68.13965 905 ft 2 kts 179°
2026-05-04 19:19 -38.95114 -68.13965 905 ft 2 kts 173°
2026-05-04 19:19 -38.95101 -68.13972 905 ft 2 kts 131°
2026-05-04 19:19 -38.95095 -68.13989 905 ft 1 kts 94°
2026-05-04 19:20 -38.95095 -68.13995 905 ft 0 kts 89°
2026-05-04 19:25 -38.95095 -68.13991 905 ft 1 kts 86°
2026-05-04 19:25 -38.95089 -68.13971 905 ft 0 kts 54°
2026-05-04 19:25 -38.95076 -68.13959 905 ft 3 kts
2026-05-04 19:26 -38.95052 -68.13971 905 ft 4 kts 323°
2026-05-04 19:26 -38.95029 -68.14000 905 ft 3 kts 315°
2026-05-04 19:26 -38.95023 -68.14008 905 ft 3 kts 315°
2026-05-04 19:26 -38.94985 -68.14056 905 ft 8 kts 315°
2026-05-04 19:27 -38.94944 -68.14106 905 ft 7 kts 329°
2026-05-04 19:27 -38.94916 -68.14109 905 ft 3 kts 358°
2026-05-04 19:27 -38.94904 -68.14120 905 ft 0 kts 273°
2026-05-04 19:27 -38.94904 -68.14123 905 ft 2 kts 268°
2026-05-04 19:28 -38.94903 -68.14376 905 ft 65 kts 270°
2026-05-04 19:28 -38.94903 -68.15273 905 ft 131 kts 271°
2026-05-04 19:28 -38.94898 -68.16636 1134 ft 158 kts 268°
2026-05-04 19:28 -38.94946 -68.18079 1521 ft 177 kts 267°
2026-05-04 19:29 -38.95053 -68.19711 1990 ft 194 kts 265°
2026-05-04 19:29 -38.95127 -68.21543 2481 ft 218 kts 277°
2026-05-04 19:29 -38.95010 -68.23505 3435 ft 225 kts 274°
2026-05-04 19:29 -38.94712 -68.25385 4636 ft 219 kts 300°
2026-05-04 19:30 -38.93550 -68.26593 5638 ft 226 kts 339°
2026-05-04 19:30 -38.91920 -68.26603 6228 ft 258 kts 14°
2026-05-04 19:30 -38.90281 -68.25393 6896 ft 280 kts 29°
2026-05-04 19:30 -38.88663 -68.23978 7758 ft 288 kts 28°
2026-05-04 19:31 -38.87024 -68.22545 8715 ft 291 kts 27°
2026-05-04 19:31 -38.85358 -68.21088 9704 ft 292 kts 26°
2026-05-04 19:31 -38.83675 -68.19619 10577 ft 296 kts 25°
2026-05-04 19:31 -38.81941 -68.18108 11211 ft 309 kts 25°
2026-05-04 19:32 -38.80116 -68.16519 11701 ft 326 kts 25°
2026-05-04 19:32 -38.78215 -68.14861 12288 ft 339 kts 25°
2026-05-04 19:32 -38.76246 -68.13143 12950 ft 348 kts 25°
2026-05-04 19:32 -38.74239 -68.11394 13681 ft 354 kts 25°
2026-05-04 19:33 -38.72185 -68.09605 14446 ft 358 kts 25°
2026-05-04 19:33 -38.70112 -68.07803 15210 ft 362 kts 25°
2026-05-04 19:33 -38.68045 -68.06007 15911 ft 367 kts 25°
2026-05-04 19:33 -38.65925 -68.04166 16630 ft 371 kts 25°
2026-05-04 19:34 -38.63789 -68.02312 17296 ft 376 kts 26°
2026-05-04 19:34 -38.61597 -68.00411 17974 ft 380 kts 25°
2026-05-04 19:34 -38.59425 -67.98529 18632 ft 385 kts 25°
2026-05-04 19:34 -38.57183 -67.96587 19303 ft 389 kts 25°
2026-05-04 19:35 -38.54953 -67.94659 19923 ft 394 kts 25°
2026-05-04 19:35 -38.52683 -67.92696 20521 ft 399 kts 25°
2026-05-04 19:35 -38.50376 -67.90703 21139 ft 403 kts 25°
2026-05-04 19:35 -38.47944 -67.88979 21699 ft 397 kts 14°
2026-05-04 19:36 -38.45411 -67.87578 22297 ft 400 kts 14°
2026-05-04 19:36 -38.42852 -67.86156 22890 ft 403 kts 14°
2026-05-04 19:36 -38.40296 -67.84734 23476 ft 407 kts 14°
2026-05-04 19:36 -38.37693 -67.83285 24061 ft 410 kts 14°
2026-05-04 19:37 -38.35076 -67.81829 24635 ft 414 kts 14°
2026-05-04 19:37 -38.32396 -67.80338 25188 ft 418 kts 14°
2026-05-04 19:37 -38.29720 -67.78852 25726 ft 422 kts 14°
2026-05-04 19:37 -38.27063 -67.77378 26267 ft 425 kts 14°
2026-05-04 19:38 -38.24311 -67.75851 26789 ft 429 kts 14°
2026-05-04 19:38 -38.21595 -67.74347 27294 ft 432 kts 14°
2026-05-04 19:38 -38.18835 -67.72818 27838 ft 435 kts 14°
2026-05-04 19:38 -38.16043 -67.71273 28347 ft 438 kts 14°
2026-05-04 19:39 -38.13238 -67.69723 28853 ft 441 kts 14°
2026-05-04 19:39 -38.10429 -67.68172 29342 ft 444 kts 14°
2026-05-04 19:39 -38.07606 -67.66614 29831 ft 447 kts 14°
2026-05-04 19:39 -38.04723 -67.65025 30278 ft 450 kts 14°
2026-05-04 19:40 -38.01844 -67.63438 30723 ft 454 kts 15°
2026-05-04 19:40 -37.98959 -67.61851 31130 ft 458 kts 14°
2026-05-04 19:40 -37.96007 -67.60226 31560 ft 462 kts 14°
2026-05-04 19:40 -37.93072 -67.58614 32014 ft 464 kts 15°
2026-05-04 19:41 -37.90135 -67.57001 32527 ft 465 kts 15°
2026-05-04 19:41 -37.87170 -67.55374 33125 ft 463 kts 14°
2026-05-04 19:41 -37.84206 -67.53751 33685 ft 463 kts 15°
2026-05-04 19:41 -37.81229 -67.52120 34254 ft 462 kts 15°
2026-05-04 19:42 -37.78316 -67.50526 34944 ft 459 kts 14°
2026-05-04 19:42 -37.75383 -67.48922 35633 ft 455 kts 14°
2026-05-04 19:42 -37.72500 -67.47348 36221 ft 455 kts 14°
2026-05-04 19:42 -37.69603 -67.45768 36701 ft 455 kts 16°
2026-05-04 19:43 -37.66685 -67.44178 37255 ft 454 kts 14°
2026-05-04 19:43 -37.63784 -67.42597 37826 ft 453 kts 13°
2026-05-04 19:43 -37.60918 -67.41038 38398 ft 452 kts 13°
2026-05-04 19:43 -37.58020 -67.39462 38921 ft 451 kts 13°
2026-05-04 19:44 -37.55157 -67.37906 39423 ft 450 kts 13°
2026-05-04 19:44 -37.52297 -67.36354 39853 ft 451 kts 13°
2026-05-04 19:44 -37.49401 -67.34783 40273 ft 452 kts 13°
2026-05-04 19:44 -37.46527 -67.33225 40727 ft 449 kts 13°
2026-05-04 19:45 -37.43666 -67.31676 40784 ft 447 kts 12°
2026-05-04 19:45 -37.37876 -67.28548 40824 ft 462 kts 13°
2026-05-04 19:46 -37.31902 -67.25323 40819 ft 477 kts 13°
2026-05-04 19:46 -37.25812 -67.22037 40815 ft 475 kts 13°
2026-05-04 19:47 -37.19741 -67.18771 40800 ft 474 kts 13°
2026-05-04 19:47 -37.13674 -67.15514 40805 ft 474 kts 13°
2026-05-04 19:48 -37.07630 -67.12273 40810 ft 475 kts 13°
2026-05-04 19:48 -37.01543 -67.09016 40806 ft 476 kts 13°
2026-05-04 19:49 -36.95476 -67.05775 40809 ft 476 kts 14°
2026-05-04 19:49 -36.89451 -67.02433 40803 ft 480 kts 20°
2026-05-04 19:50 -36.83725 -66.98072 40814 ft 485 kts 23°
2026-05-04 19:50 -36.78011 -66.93710 40808 ft 482 kts 22°
2026-05-04 19:51 -36.72274 -66.89342 40805 ft 482 kts 23°
2026-05-04 19:51 -36.66559 -66.85000 40812 ft 484 kts 23°
2026-05-04 19:52 -36.60812 -66.80640 40808 ft 483 kts 23°
2026-05-04 19:52 -36.55107 -66.76320 40809 ft 481 kts 23°
2026-05-04 19:53 -36.49399 -66.72005 40805 ft 481 kts 23°
2026-05-04 19:53 -36.43710 -66.67712 40810 ft 481 kts 23°
2026-05-04 19:54 -36.38014 -66.63422 40807 ft 480 kts 23°
2026-05-04 19:54 -36.32315 -66.59135 40813 ft 479 kts 23°
2026-05-04 19:55 -36.26654 -66.54887 40811 ft 477 kts 23°
2026-05-04 19:55 -36.20954 -66.50614 40806 ft 478 kts 23°
2026-05-04 19:56 -36.15275 -66.46365 40809 ft 477 kts 24°
2026-05-04 19:56 -36.09605 -66.42132 40813 ft 476 kts 24°
2026-05-04 19:57 -36.03954 -66.37918 40809 ft 477 kts 23°
2026-05-04 19:57 -35.98285 -66.33699 40797 ft 476 kts 23°
2026-05-04 19:58 -35.92650 -66.29512 40793 ft 475 kts 22°
2026-05-04 19:58 -35.86984 -66.25308 40801 ft 475 kts 23°
2026-05-04 19:59 -35.81293 -66.21094 40801 ft 476 kts 22°
2026-05-04 19:59 -35.75650 -66.16923 40811 ft 475 kts 23°
2026-05-04 20:00 -35.69989 -66.12744 40809 ft 476 kts 22°
2026-05-04 20:00 -35.64316 -66.08565 40812 ft 477 kts 22°
2026-05-04 20:01 -35.58639 -66.04392 40809 ft 475 kts 22°
2026-05-04 20:01 -35.52979 -66.00237 40816 ft 474 kts 22°
2026-05-04 20:02 -35.47314 -65.96087 40816 ft 476 kts 22°
2026-05-04 20:02 -35.41613 -65.91917 40815 ft 478 kts 22°
2026-05-04 20:03 -35.35919 -65.87758 40812 ft 477 kts 22°
2026-05-04 20:03 -35.30220 -65.83604 40810 ft 476 kts 22°
2026-05-04 20:04 -35.24549 -65.79476 40809 ft 476 kts 22°
2026-05-04 20:04 -35.18850 -65.75336 40809 ft 476 kts 22°
2026-05-04 20:05 -35.13186 -65.71227 40806 ft 477 kts 22°
2026-05-04 20:05 -35.07453 -65.67075 40813 ft 476 kts 22°
2026-05-04 20:06 -35.01766 -65.62962 40817 ft 476 kts 22°
2026-05-04 20:06 -34.96077 -65.58857 40822 ft 477 kts 22°
2026-05-04 20:07 -34.90360 -65.54736 40828 ft 478 kts 22°
2026-05-04 20:07 -34.84612 -65.50600 40829 ft 479 kts 22°
2026-05-04 20:08 -34.78910 -65.46504 40831 ft 477 kts 22°
2026-05-04 20:08 -34.73186 -65.42399 40832 ft 479 kts 22°
2026-05-04 20:09 -34.67417 -65.38268 40832 ft 480 kts 22°
2026-05-04 20:09 -34.61653 -65.34147 40822 ft 481 kts 22°
2026-05-04 20:10 -34.55909 -65.30045 40815 ft 481 kts 22°
2026-05-04 20:10 -34.50168 -65.25952 40812 ft 481 kts 22°
2026-05-04 20:11 -34.44369 -65.21826 40809 ft 480 kts 22°
2026-05-04 20:11 -34.38639 -65.17755 40806 ft 482 kts 22°
2026-05-04 20:12 -34.32819 -65.13626 40808 ft 482 kts 22°
2026-05-04 20:12 -34.27036 -65.09531 40809 ft 482 kts 22°
2026-05-04 20:13 -34.21263 -65.05450 40813 ft 484 kts 22°
2026-05-04 20:13 -34.15465 -65.01356 40813 ft 483 kts 22°
2026-05-04 20:14 -34.09615 -64.97233 40812 ft 485 kts 22°
2026-05-04 20:14 -34.03815 -64.93152 40814 ft 486 kts 22°
2026-05-04 20:15 -33.97990 -64.89059 40813 ft 483 kts 22°
2026-05-04 20:15 -33.92179 -64.84984 40816 ft 486 kts 22°
2026-05-04 20:16 -33.86320 -64.80881 40819 ft 485 kts 22°
2026-05-04 20:16 -33.80481 -64.76798 40817 ft 485 kts 22°
2026-05-04 20:17 -33.74671 -64.72742 40820 ft 486 kts 22°
2026-05-04 20:17 -33.68825 -64.68668 40825 ft 484 kts 22°
2026-05-04 20:18 -33.62976 -64.64599 40827 ft 485 kts 22°
2026-05-04 20:18 -33.57140 -64.60545 40829 ft 487 kts 22°
2026-05-04 20:19 -33.51311 -64.56501 40829 ft 485 kts 22°
2026-05-04 20:19 -33.45488 -64.52387 40834 ft 486 kts 23°
2026-05-04 20:20 -33.39667 -64.48214 40831 ft 486 kts 23°
2026-05-04 20:20 -33.33838 -64.44045 40826 ft 488 kts 23°
2026-05-04 20:21 -33.28111 -64.39952 40820 ft 471 kts 23°
2026-05-04 20:21 -33.19706 -64.33964 40466 ft 475 kts 22°
2026-05-04 20:22 -33.16847 -64.31928 39958 ft 471 kts 23°
2026-05-04 20:22 -33.14058 -64.29943 39435 ft 468 kts 22°
2026-05-04 20:22 -33.11273 -64.27965 38925 ft 467 kts 23°
2026-05-04 20:22 -33.08476 -64.25992 38402 ft 465 kts 21°
2026-05-04 20:23 -33.05671 -64.24102 37895 ft 465 kts 21°
2026-05-04 20:23 -33.02869 -64.22209 37382 ft 465 kts 22°
2026-05-04 20:23 -33.00031 -64.20293 36862 ft 466 kts 22°
2026-05-04 20:23 -32.97240 -64.18407 36351 ft 466 kts 22°
2026-05-04 20:24 -32.94438 -64.16516 35844 ft 464 kts 22°
2026-05-04 20:24 -32.91602 -64.14605 35327 ft 465 kts 22°
2026-05-04 20:24 -32.88786 -64.12708 34812 ft 467 kts 22°
2026-05-04 20:24 -32.85968 -64.10809 34294 ft 467 kts 22°
2026-05-04 20:25 -32.83141 -64.08907 33774 ft 466 kts 22°
2026-05-04 20:25 -32.80313 -64.07007 33274 ft 466 kts 22°
2026-05-04 20:25 -32.77500 -64.05117 32757 ft 467 kts 22°
2026-05-04 20:25 -32.74690 -64.03231 32247 ft 467 kts 22°
2026-05-04 20:26 -32.71828 -64.01311 31721 ft 467 kts 23°
2026-05-04 20:26 -32.69015 -63.99426 31207 ft 469 kts 23°
2026-05-04 20:26 -32.66154 -63.97510 30683 ft 469 kts 23°
2026-05-04 20:26 -32.63335 -63.95601 30164 ft 467 kts 24°
2026-05-04 20:27 -32.60518 -63.93690 29642 ft 463 kts 24°
2026-05-04 20:27 -32.57741 -63.91809 29132 ft 459 kts 24°
2026-05-04 20:27 -32.54995 -63.89951 28624 ft 456 kts 24°
2026-05-04 20:27 -32.52266 -63.88105 28127 ft 452 kts 24°
2026-05-04 20:28 -32.49539 -63.86261 27627 ft 449 kts 24°
2026-05-04 20:28 -32.46835 -63.84435 27133 ft 445 kts 24°
2026-05-04 20:28 -32.44181 -63.82644 26648 ft 441 kts 24°
2026-05-04 20:28 -32.41517 -63.80847 26164 ft 439 kts 24°
2026-05-04 20:29 -32.38877 -63.79068 25683 ft 436 kts 24°
2026-05-04 20:29 -32.36266 -63.77309 25209 ft 431 kts 24°
2026-05-04 20:29 -32.33664 -63.75557 24732 ft 428 kts 24°
2026-05-04 20:29 -32.31101 -63.73833 24263 ft 426 kts 25°
2026-05-04 20:30 -32.28537 -63.72110 23793 ft 422 kts 25°
2026-05-04 20:30 -32.25992 -63.70400 23329 ft 419 kts 25°
2026-05-04 20:30 -32.23468 -63.68705 22867 ft 416 kts 25°
2026-05-04 20:30 -32.20958 -63.67022 22409 ft 413 kts 25°
2026-05-04 20:31 -32.18461 -63.65348 21951 ft 412 kts 25°
2026-05-04 20:31 -32.16010 -63.63704 21502 ft 408 kts 25°
2026-05-04 20:31 -32.13544 -63.62053 21059 ft 406 kts 25°
2026-05-04 20:31 -32.11086 -63.60408 20604 ft 402 kts 25°
2026-05-04 20:32 -32.08694 -63.58808 20165 ft 399 kts 25°
2026-05-04 20:32 -32.06214 -63.57365 19710 ft 388 kts 11°
2026-05-04 20:32 -32.03614 -63.57067 19313 ft 373 kts 349°
2026-05-04 20:32 -32.01053 -63.57537 18879 ft 367 kts 344°
2026-05-04 20:33 -31.98575 -63.58103 18472 ft 366 kts 343°
2026-05-04 20:33 -31.96089 -63.58701 18055 ft 362 kts 343°
2026-05-04 20:33 -31.93633 -63.59304 17667 ft 360 kts 343°
2026-05-04 20:33 -31.91199 -63.59904 17272 ft 357 kts 343°
2026-05-04 20:34 -31.88746 -63.60510 16868 ft 354 kts 343°
2026-05-04 20:34 -31.86343 -63.61104 16485 ft 352 kts 343°
2026-05-04 20:34 -31.83962 -63.61692 16096 ft 350 kts 344°
2026-05-04 20:34 -31.81596 -63.62276 15708 ft 347 kts 343°
2026-05-04 20:35 -31.79250 -63.62855 15333 ft 345 kts 343°
2026-05-04 20:35 -31.76887 -63.63439 14945 ft 343 kts 344°
2026-05-04 20:35 -31.74574 -63.64010 14568 ft 340 kts 344°
2026-05-04 20:35 -31.72255 -63.64581 14191 ft 338 kts 344°
2026-05-04 20:36 -31.69976 -63.65142 13825 ft 336 kts 344°
2026-05-04 20:36 -31.67668 -63.65711 13449 ft 334 kts 344°
2026-05-04 20:36 -31.65414 -63.66266 13092 ft 331 kts 345°
2026-05-04 20:36 -31.63161 -63.66820 12717 ft 329 kts 345°
2026-05-04 20:37 -31.60920 -63.67371 12351 ft 328 kts 345°
2026-05-04 20:37 -31.58691 -63.67919 11988 ft 326 kts 345°
2026-05-04 20:37 -31.56476 -63.68463 11620 ft 324 kts 345°
2026-05-04 20:37 -31.54291 -63.68999 11261 ft 317 kts 346°
2026-05-04 20:38 -31.52130 -63.69530 10914 ft 310 kts 346°
2026-05-04 20:38 -31.50048 -63.70040 10574 ft 302 kts 346°
2026-05-04 20:38 -31.48028 -63.70535 10239 ft 294 kts 346°
2026-05-04 20:38 -31.46042 -63.71049 9907 ft 285 kts 340°
2026-05-04 20:39 -31.44459 -63.72295 9633 ft 276 kts 308°
2026-05-04 20:39 -31.43698 -63.74365 9283 ft 281 kts 280°
2026-05-04 20:39 -31.43560 -63.76649 8950 ft 281 kts 275°
2026-05-04 20:39 -31.43507 -63.78906 8619 ft 280 kts 274°
2026-05-04 20:40 -31.43485 -63.81183 8305 ft 278 kts 274°
2026-05-04 20:40 -31.43477 -63.83456 7996 ft 278 kts 273°
2026-05-04 20:40 -31.43476 -63.85715 7687 ft 277 kts 273°
2026-05-04 20:40 -31.43477 -63.87964 7378 ft 276 kts 273°
2026-05-04 20:41 -31.43480 -63.90187 7078 ft 275 kts 273°
2026-05-04 20:41 -31.43483 -63.92419 6770 ft 274 kts 273°
2026-05-04 20:41 -31.43486 -63.94638 6483 ft 272 kts 273°
2026-05-04 20:41 -31.43489 -63.96839 6189 ft 266 kts 273°
2026-05-04 20:42 -31.43491 -63.98983 5895 ft 258 kts 273°
2026-05-04 20:42 -31.43494 -64.01025 5618 ft 247 kts 274°
2026-05-04 20:42 -31.43495 -64.02997 5369 ft 240 kts 274°
2026-05-04 20:42 -31.43496 -64.04939 5246 ft 233 kts 274°
2026-05-04 20:43 -31.43496 -64.06791 5057 ft 225 kts 274°
2026-05-04 20:43 -31.43496 -64.08607 4831 ft 219 kts 274°
2026-05-04 20:43 -31.43495 -64.10372 4599 ft 214 kts 274°
2026-05-04 20:43 -31.43494 -64.12099 4377 ft 210 kts 275°
2026-05-04 20:44 -31.43493 -64.13787 4153 ft 206 kts 274°
2026-05-04 20:44 -31.43463 -64.15453 3922 ft 200 kts 287°
2026-05-04 20:44 -31.42775 -64.16740 3734 ft 183 kts 327°
2026-05-04 20:44 -31.41725 -64.17558 3502 ft 184 kts 331°
2026-05-04 20:45 -31.40628 -64.18363 3258 ft 184 kts 332°
2026-05-04 20:45 -31.39570 -64.19124 3084 ft 175 kts 332°
2026-05-04 20:45 -31.38528 -64.19865 2911 ft 163 kts 333°
2026-05-04 20:45 -31.37575 -64.20515 2638 ft 153 kts 341°
2026-05-04 20:46 -31.36555 -64.20682 2410 ft 149 kts 359°
2026-05-04 20:46 -31.35515 -64.20794 2265 ft 148 kts 358°
2026-05-04 20:46 -31.34465 -64.20827 2110 ft 151 kts
2026-05-04 20:46 -31.33378 -64.20810 1857 ft 159 kts
2026-05-04 20:47 -31.32306 -64.20824 1636 ft 148 kts
2026-05-04 20:47 -31.31379 -64.20827 1613 ft 115 kts
2026-05-04 20:47 -31.30755 -64.20836 1613 ft 66 kts 357°
2026-05-04 20:47 -31.30419 -64.20843 1613 ft 24 kts 359°
2026-05-04 20:48 -31.30348 -64.20853 1613 ft 2 kts 65°
2026-05-04 20:48 -31.30362 -64.20845 1613 ft 3 kts 174°
2026-05-04 20:48 -31.30399 -64.20844 1613 ft 6 kts 179°
2026-05-04 20:48 -31.30461 -64.20843 1613 ft 11 kts 180°
2026-05-04 20:49 -31.30549 -64.20843 1613 ft 12 kts 179°
2026-05-04 20:49 -31.30639 -64.20840 1613 ft 13 kts 179°
2026-05-04 20:49 -31.30738 -64.20838 1613 ft 14 kts 179°
2026-05-04 20:49 -31.30840 -64.20837 1613 ft 14 kts 179°
2026-05-04 20:50 -31.30945 -64.20835 1613 ft 15 kts 179°
2026-05-04 20:50 -31.31055 -64.20834 1613 ft 16 kts 179°
2026-05-04 20:50 -31.31167 -64.20832 1613 ft 16 kts 179°
2026-05-04 20:50 -31.31283 -64.20829 1613 ft 16 kts 179°
2026-05-04 20:51 -31.31399 -64.20841 1613 ft 16 kts 207°
2026-05-04 20:51 -31.31464 -64.20915 1613 ft 12 kts 262°
2026-05-04 20:51 -31.31467 -64.21001 1613 ft 10 kts 262°
2026-05-04 20:51 -31.31494 -64.21053 1613 ft 7 kts 225°
2026-05-04 20:52 -31.31504 -64.21109 1613 ft 7 kts 269°
2026-05-04 20:52 -31.31504 -64.21139 1613 ft 6 kts 270°